Regional Weather Roundup
Issued by NWS Sioux Falls, SD

Home | Current Version | Previous Version | Text Only | Print | Product List | Glossary On
Versions: 1 2 3 4 5 6 7 8 9 10 11 12 13 14 15 16 17 18 19 20 21 22 23 24 25 26 27 28 29 30 31 32 33 34 35 36 37 38 39 40 41 42 43 44 45 46 47 48 49 50
000
ASUS43 KFSD 241310
RWRFSD

WEATHER ROUNDUP FOR SE SOUTH DAKOTA/SW MINNESOTA/NW IOWA
NATIONAL WEATHER SERVICE SIOUX FALLS SD
800 AM CDT WED MAY 24 2017

NOTE: "FAIR" INDICATES FEW OR NO CLOUDS BELOW 12,000 FEET WITH NO
SIGNIFICANT WEATHER AND OR OBSTRUCTIONS TO VISIBILITY.


SDZ038>040-050-052>070-241400-
SOUTHEAST SOUTH DAKOTA

CITY           SKY/WX    TMP DP  RH WIND       PRES   REMARKS
BROOKINGS      CLOUDY    47  45  93 N5        29.82S
CHAMBERLAIN    SUNNY     45  45  97 CALM      29.84S
HURON          PTSUNNY   42  42 100 NW3       29.83S FOG
MADISON        CLOUDY    45  45 100 NE10      29.82S
MITCHELL       SUNNY     44  42  93 N3        29.84S
SIOUX FALLS    CLOUDY    47  46  97 NE6       29.82R
WINNER         FAIR      46  40  79 CALM      29.83F
YANKTON        SUNNY     46  44  93 NW9       29.83S
$$

MNZ071-072-080-081-089-090-097-098-241400-
SOUTHWEST MINNESOTA

CITY           SKY/WX    TMP DP  RH WIND       PRES   REMARKS
FAIRMONT       CLOUDY    47  44  90 N12       29.77F
JACKSON        CLOUDY    46  45  93 N10       29.79S
LUVERNE        CLOUDY    46  43  87 NE10      29.80F
MARSHALL       CLOUDY    47  45  93 N6        29.82F
MONTEVIDEO     CLOUDY    48  48 100 NE6       29.82S
PIPESTONE      CLOUDY    48  43  81 E8        29.81R
REDWOOD FALLS  CLOUDY    48  44  86 N6        29.80S
TRACY          CLOUDY    47  47 100 N6        29.82S
WINDOM         SUNNY     48  46  93 N13       29.79F
WORTHINGTON    CLOUDY    47  45  93 N10       29.81S
$$

IAZ001>003-012>014-020>022-031-032-NEZ013-014-SDZ071-241400-
NORTHWEST IOWA

CITY           SKY/WX    TMP DP  RH WIND       PRES   REMARKS
CHEROKEE       MOSUNNY   49  48  97 N10       29.78S
DENISON        PTSUNNY   50  46  87 N7        29.78S
ESTHERVILLE    CLOUDY    46  46 100 N14       29.77R
LE MARS        PTSUNNY   48  46  93 N8        29.81S
ORANGE CITY    FOG       46  46 100 N13G18    29.80S VSB 3/4
SHELDON        CLOUDY    46  46 100 N13         N/A
SIOUX CITY     CLOUDY    48  47  96 N8        29.80F
SPENCER        CLOUDY    48  45  89 N14       29.78S
STORM LAKE     MOSUNNY   48  45  87 N15       29.77R
$$

ABBREVIATIONS USED IN REMARKS
   TC - TEMPERATURE IN CELSIUS
  WCI - WIND CHILL INDEX
   HX - HEAT INDEX
  VSB - VISIBILITY




USA.gov is the U.S. government's official web portal to all federal, state and local government web resources and services.